When you browse on this site, cookies collect data to enhance your experience and personalize the content and advertising you see.
Visit our Privacy Policy to learn more. By continuing to use the site, you agree to this use of cookies and data.
  • In United Kingdom
  • List of Countries
  • For 7 days
  • Water Temperature
  • Satellite Maps
  • Weather Map
  • Weather Widgets
  • user-avatar
    Login

    Hourly Weather Minnetonka Mills

    Today, 27 June, Thursday

    Time Temperature Precipitation Wind Pressure Humidity
    00:00 +21°C° 0.1 mm 2 mps 737 mmHg 83%
    01:00 +21°C° 0.1 mm 2 mps 736 mmHg 85%
    02:00 +21°C° 0.1 mm 2 mps 736 mmHg 88%
    03:00 +21°C° 0.1 mm 2 mps 736 mmHg 90%
    04:00 +21°C° 0.2 mm 2 mps 736 mmHg 90%
    05:00 +21°C° 0.2 mm 2 mps 736 mmHg 90%
    06:00 +21°C° 0.2 mm 2 mps 736 mmHg 90%
    07:00 +23°C° 1 mm 2 mps 736 mmHg 87%
    08:00 +24°C° 1 mm 2 mps 736 mmHg 84%
    09:00 +25°C° 1 mm 3 mps 736 mmHg 81%
    10:00 +23°C° 1 mm 4 mps 736 mmHg 77%
    11:00 +23°C° 1 mm 4 mps 736 mmHg 74%
    12:00 +23°C° 1 mm 5 mps 736 mmHg 70%
    13:00 +25°C° 0.4 mm 4 mps 735 mmHg 67%
    14:00 +27°C° 0.4 mm 3 mps 735 mmHg 65%
    15:00 +28°C° 0.4 mm 2 mps 735 mmHg 62%
    16:00 +27°C° 0.8 mm 2 mps 735 mmHg 70%
    17:00 +26°C° 0.8 mm 2 mps 735 mmHg 77%
    18:00 +24°C° 0.8 mm 2 mps 735 mmHg 85%
    19:00 +24°C° 0.1 mm 2 mps 735 mmHg 86%
    20:00 +23°C° 0.1 mm 2 mps 735 mmHg 88%
    21:00 +23°C° 0.1 mm 2 mps 735 mmHg 89%
    22:00 +21°C° 0 mm 2 mps 735 mmHg 90%
    23:00 +21°C° 0 mm 2 mps 735 mmHg 91%

    Tomorrow, 28 June, Friday

    Time Temperature Precipitation Wind Pressure Humidity
    00:00 +21°C° 0 mm 2 mps 735 mmHg 93%
    01:00 +20°C° 0 mm 2 mps 735 mmHg 93%
    02:00 +20°C° 0 mm 2 mps 735 mmHg 93%
    03:00 +20°C° 0 mm 2 mps 735 mmHg 93%
    04:00 +20°C° 0 mm 2 mps 735 mmHg 92%
    05:00 +20°C° 0 mm 2 mps 735 mmHg 92%
    06:00 +20°C° 0 mm 2 mps 735 mmHg 91%
    07:00 +23°C° 0 mm 2 mps 735 mmHg 87%
    08:00 +24°C° 0 mm 3 mps 736 mmHg 82%
    09:00 +26°C° 0 mm 3 mps 736 mmHg 78%
    10:00 +27°C° 0 mm 3 mps 736 mmHg 74%
    11:00 +29°C° 0 mm 3 mps 736 mmHg 70%
    12:00 +30°C° 0 mm 3 mps 736 mmHg 66%
    13:00 +30°C° 0 mm 3 mps 736 mmHg 66%
    14:00 +30°C° 0 mm 3 mps 736 mmHg 66%
    15:00 +31°C° 0 mm 3 mps 736 mmHg 67%
    16:00 +30°C° 0 mm 3 mps 736 mmHg 69%
    17:00 +30°C° 0 mm 3 mps 736 mmHg 70%
    18:00 +30°C° 0 mm 3 mps 736 mmHg 72%
    19:00 +29°C° 0 mm 2 mps 736 mmHg 77%
    20:00 +27°C° 0 mm 2 mps 736 mmHg 82%
    21:00 +26°C° 0 mm 2 mps 736 mmHg 87%
    22:00 +26°C° 0 mm 2 mps 736 mmHg 88%
    23:00 +25°C° 0 mm 2 mps 736 mmHg 90%

    Day after tomorrow, 29 June, Saturday

    Time Temperature Precipitation Wind Pressure Humidity
    00:00 +25°C° 0 mm 1 mps 736 mmHg 91%
    01:00 +24°C° 0 mm 1 mps 736 mmHg 93%
    02:00 +24°C° 0 mm 1 mps 736 mmHg 94%
    03:00 +24°C° 0 mm 1 mps 736 mmHg 95%
    04:00 +24°C° 0 mm 2 mps 736 mmHg 95%
    05:00 +24°C° 0 mm 2 mps 736 mmHg 95%
    06:00 +24°C° 0 mm 2 mps 736 mmHg 95%
    07:00 +26°C° 0 mm 2 mps 736 mmHg 89%
    08:00 +28°C° 0 mm 2 mps 736 mmHg 83%
    09:00 +30°C° 0 mm 3 mps 736 mmHg 78%
    10:00 +31°C° 0 mm 3 mps 736 mmHg 74%
    11:00 +33°C° 0 mm 3 mps 736 mmHg 70%
    12:00 +35°C° 0 mm 3 mps 736 mmHg 65%
    13:00 +35°C° 0 mm 4 mps 736 mmHg 64%
    14:00 +35°C° 0 mm 4 mps 735 mmHg 63%
    15:00 +36°C° 0 mm 4 mps 735 mmHg 62%
    16:00 +36°C° 0 mm 4 mps 735 mmHg 65%
    17:00 +35°C° 0 mm 3 mps 734 mmHg 68%
    18:00 +35°C° 0 mm 3 mps 734 mmHg 71%
    19:00 +33°C° 0 mm 3 mps 734 mmHg 75%
    20:00 +31°C° 0 mm 3 mps 734 mmHg 80%
    21:00 +30°C° 0 mm 3 mps 734 mmHg 85%
    22:00 +29°C° 0 mm 4 mps 734 mmHg 86%
    23:00 +29°C° 0 mm 4 mps 734 mmHg 87%

    30 June, Sunday

    Time Temperature Precipitation Wind Pressure Humidity
    00:00 +28°C° 0 mm 4 mps 734 mmHg 88%
    01:00 +28°C° 0 mm 4 mps 734 mmHg 90%
    02:00 +27°C° 0 mm 3 mps 734 mmHg 92%
    03:00 +27°C° 0 mm 3 mps 734 mmHg 94%
    04:00 +27°C° 0 mm 3 mps 734 mmHg 94%
    05:00 +27°C° 0 mm 3 mps 734 mmHg 94%
    06:00 +27°C° 0 mm 3 mps 734 mmHg 94%
    07:00 +28°C° 0 mm 3 mps 734 mmHg 91%
    08:00 +29°C° 0 mm 3 mps 734 mmHg 88%
    09:00 +30°C° 0 mm 3 mps 734 mmHg 85%
    10:00 +30°C° 0.1 mm 2 mps 734 mmHg 81%
    11:00 +31°C° 0.1 mm 2 mps 734 mmHg 78%
    12:00 +32°C° 0.1 mm 1 mps 734 mmHg 74%
    13:00 +32°C° 0.5 mm 2 mps 734 mmHg 73%
    14:00 +32°C° 0.5 mm 2 mps 734 mmHg 71%
    15:00 +33°C° 0.5 mm 3 mps 734 mmHg 69%
    16:00 +33°C° 1.4 mm 3 mps 734 mmHg 71%
    17:00 +31°C° 1.4 mm 3 mps 734 mmHg 73%
    18:00 +30°C° 1.4 mm 3 mps 734 mmHg 75%
    19:00 +29°C° 1.4 mm 3 mps 734 mmHg 73%
    20:00 +27°C° 1.4 mm 3 mps 735 mmHg 71%
    21:00 +26°C° 1.4 mm 3 mps 735 mmHg 68%
    22:00 +25°C° 0.2 mm 3 mps 735 mmHg 70%
    23:00 +24°C° 0.2 mm 2 mps 735 mmHg 72%

    1 July, Monday

    Time Temperature Precipitation Wind Pressure Humidity
    00:00 +23°C° 0.2 mm 2 mps 735 mmHg 74%
    01:00 +23°C° 0.1 mm 2 mps 735 mmHg 74%
    02:00 +21°C° 0.1 mm 2 mps 736 mmHg 75%
    03:00 +22°C° 0.1 mm 1 mps 736 mmHg 76%
    04:00 +22°C° 0.2 mm 1 mps 736 mmHg 77%
    05:00 +22°C° 0.2 mm 1 mps 736 mmHg 77%
    06:00 +22°C° 0.2 mm 1 mps 736 mmHg 77%
    07:00 +24°C° 0 mm 1 mps 737 mmHg 71%
    08:00 +25°C° 0 mm 1 mps 737 mmHg 64%
    09:00 +26°C° 0 mm 1 mps 737 mmHg 57%
    10:00 +27°C° 0 mm 1 mps 737 mmHg 53%
    11:00 +29°C° 0 mm 2 mps 737 mmHg 48%
    12:00 +30°C° 0 mm 2 mps 737 mmHg 44%
    13:00 +30°C° 0 mm 2 mps 736 mmHg 44%
    14:00 +30°C° 0 mm 2 mps 736 mmHg 43%
    15:00 +30°C° 0 mm 2 mps 736 mmHg 43%
    16:00 +30°C° 0 mm 2 mps 736 mmHg 47%
    17:00 +29°C° 0 mm 2 mps 735 mmHg 51%
    18:00 +29°C° 0 mm 2 mps 735 mmHg 55%
    19:00 +27°C° 0 mm 1 mps 735 mmHg 58%
    20:00 +25°C° 0 mm 1 mps 735 mmHg 61%
    21:00 +22°C° 0 mm 0 mps 735 mmHg 63%
    22:00 +21°C° 0 mm 0 mps 735 mmHg 66%
    23:00 +21°C° 0 mm 0 mps 734 mmHg 68%

    2 July, Tuesday

    Time Temperature Precipitation Wind Pressure Humidity
    00:00 +20°C° 0 mm 0 mps 734 mmHg 70%
    01:00 +22°C° 0 mm 1 mps 734 mmHg 73%
    02:00 +21°C° 0 mm 1 mps 734 mmHg 75%
    03:00 +21°C° 0 mm 1 mps 734 mmHg 77%
    04:00 +21°C° 0 mm 1 mps 734 mmHg 78%
    05:00 +21°C° 0 mm 2 mps 734 mmHg 79%
    06:00 +21°C° 0 mm 2 mps 733 mmHg 80%
    07:00 +22°C° 0 mm 3 mps 733 mmHg 75%
    08:00 +25°C° 0 mm 3 mps 733 mmHg 71%
    09:00 +26°C° 0 mm 4 mps 733 mmHg 67%
    10:00 +28°C° 0 mm 4 mps 733 mmHg 65%
    11:00 +29°C° 0 mm 4 mps 732 mmHg 63%
    12:00 +30°C° 0 mm 5 mps 732 mmHg 62%
    13:00 +30°C° 1.2 mm 5 mps 731 mmHg 63%
    14:00 +30°C° 1.2 mm 5 mps 731 mmHg 65%
    15:00 +30°C° 1.2 mm 5 mps 730 mmHg 66%
    16:00 +30°C° 0.8 mm 5 mps 730 mmHg 69%
    17:00 +30°C° 0.8 mm 4 mps 730 mmHg 72%
    18:00 +29°C° 0.8 mm 4 mps 729 mmHg 74%
    19:00 +28°C° 1.8 mm 4 mps 729 mmHg 77%
    20:00 +27°C° 1.8 mm 3 mps 729 mmHg 80%
    21:00 +26°C° 1.8 mm 3 mps 729 mmHg 83%
    22:00 +26°C° 0 mm 3 mps 729 mmHg 84%
    23:00 +25°C° 0 mm 3 mps 729 mmHg 86%
    Show more